Theta_e
306 320 338 341 340 349 350 352 354 354 354 352 354 355 352 352 351 351 351 348 347 350 350 353 354 356 354 355 354 352 348 345
301 304 305 305 330 344 349 352 353 352 350 352 352 352 350 350 349 350 348 347 345 345 346 347 346 351 351 351 349 348 346 345
302 303 302 303 317 343 346 349 350 348 349 350 349 350 350 349 349 349 348 346 345 345 345 345 345 348 348 348 346 344 345 344
301 302 303 305 310 337 345 345 346 346 348 350 349 350 351 350 350 348 349 348 346 344 344 344 344 345 347 346 345 342 342 343
302 302 303 304 311 336 342 342 345 344 345 346 345 347 348 348 349 350 349 349 347 346 344 343 343 344 346 346 344 343 342 341
303 304 304 305 306 311 334 346 342 342 341 343 343 343 344 345 344 345 348 349 348 345 344 343 344 343 344 344 344 342 341 340
304 305 304 304 306 310 318 326 336 337 339 341 341 342 343 343 346 345 344 344 347 346 344 344 344 343 341 342 343 342 341 339
308 310 308 306 306 310 313 316 320 323 322 320 318 319 318 322 325 332 338 343 344 342 343 342 342 342 341 341 340 343 341 341
309 311 313 315 315 315 316 317 316 316 314 313 314 316 318 320 322 327 328 333 338 340 341 341 343 340 340 341 341 341 340 341
308 309 311 313 315 316 317 318 319 319 319 320 320 320 321 322 322 323 326 327 329 331 334 338 340 340 341 341 340 338 339 338
306 308 311 314 315 316 317 318 319 318 319 319 318 317 317 317 318 321 323 325 327 330 331 334 338 340 338 340 340 338 336 335
304 308 308 312 314 313 313 313 312 313 314 314 314 314 313 315 317 320 320 323 324 327 328 330 334 338 337 337 340 339 337 334
302 303 304 306 307 307 308 307 307 308 309 310 310 309 312 314 314 313 314 316 320 324 324 329 330 332 336 337 338 337 336 335
302 303 304 304 304 305 305 306 306 307 307 307 307 306 307 307 308 309 310 313 315 318 321 323 326 328 329 332 337 337 335 333
301 301 302 303 303 304 306 305 306 306 306 306 306 306 306 306 306 308 308 309 311 312 316 320 323 326 328 331 333 332 332 332
300 301 301 301 304 304 305 305 305 305 306 305 305 305 304 304 305 305 306 307 309 313 316 319 322 325 325 325 325 330 333 331
300 300 299 300 300 302 303 304 303 304 304 304 303 304 304 303 304 305 305 307 309 311 314 316 320 324 325 326 325 327 330 333
300 299 299 300 300 300 303 303 302 302 303 302 303 302 304 304 304 305 306 306 308 309 311 314 317 321 323 326 328 330 330 331
297 298 299 299 299 299 301 301 302 302 302 302 302 302 303 303 304 305 305 306 307 308 309 312 315 319 323 324 326 328 326 328
296 297 298 298 298 299 299 301 301 302 302 302 302 302 302 302 303 304 305 305 307 308 309 312 316 321 322 324 322 321 320 318
Wind_Speed
6 5 6 6 5 5 8 8 9 8 5 4 2 2 3 3 6 4 4 4 4 4 2 3 3 8 4 5 5 4 5 4
7 6 6 5 6 6 7 9 9 7 4 5 4 3 4 3 7 6 3 2 3 4 4 6 6 4 6 5 4 5 6 7
5 7 7 6 4 4 6 6 7 7 7 5 4 6 5 4 6 6 4 5 3 5 6 6 5 4 4 5 6 7 7 7
4 5 6 7 6 6 7 7 7 7 5 9 7 5 5 5 4 5 7 5 4 5 5 6 4 4 4 4 5 8 7 7
8 7 7 6 5 6 8 8 8 10 9 7 5 4 4 3 2 4 5 5 8 7 5 5 6 5 7 7 9 9 8 6
8 8 8 4 5 4 2 3 6 4 4 3 2 3 3 2 2 2 4 6 7 5 5 6 5 5 6 7 7 9 8 7
7 8 8 5 7 5 5 4 6 6 6 4 4 4 2 2 1 2 3 5 5 5 5 6 5 6 6 7 8 8 8 8
10 9 6 3 2 4 7 6 6 7 6 5 4 4 3 3 2 3 4 3 4 4 5 6 5 6 7 7 9 7 8 9
7 8 8 7 7 8 6 8 6 4 4 5 4 3 2 3 2 2 2 3 4 4 4 6 7 8 10 9 8 9 8 5
9 9 11 10 8 8 8 8 6 4 3 3 3 3 2 2 2 4 4 3 3 4 5 6 8 7 10 11 10 9 8 6
8 9 9 8 10 8 8 8 8 7 6 4 3 2 2 3 4 3 4 6 5 5 6 6 7 8 9 10 10 12 9 4
6 7 8 8 6 6 7 8 8 7 7 6 7 3 2 1 3 3 6 8 8 8 7 7 7 6 8 11 8 10 9 9
7 7 7 6 7 7 7 8 8 8 9 8 5 4 2 3 3 6 5 6 7 9 10 9 9 5 7 8 9 9 6 7
5 4 5 5 5 5 5 6 5 5 5 6 7 5 4 4 5 4 4 4 6 8 9 9 8 8 7 7 9 10 11 9
5 4 3 4 4 4 3 4 3 5 6 5 5 2 1 3 4 4 6 5 5 9 9 10 9 8 9 7 7 8 9 9
4 4 2 1 1 2 2 1 1 1 1 2 3 3 2 3 4 5 5 5 7 10 10 10 12 10 8 7 6 7 10 11
6 4 1 3 5 4 3 3 4 4 3 3 4 4 4 4 7 5 6 7 8 10 10 11 12 10 9 8 7 8 9 11
5 1 2 3 4 4 3 4 5 5 5 3 3 4 4 5 5 8 9 8 10 11 12 11 12 11 10 8 8 9 8 8
5 4 5 5 5 5 5 5 6 6 5 4 5 5 5 6 7 9 10 9 10 11 12 12 13 12 8 7 9 11 8 7
4 5 6 6 5 5 6 6 5 6 6 5 6 6 6 7 9 10 10 11 11 12 12 12 13 10 6 7 9 6 3 3
Wind_Direction
154 180 192 210 218 186 186 177 175 168 166 149 167 142 171 167 203 200 195 215 235 245 269 258 235 232 224 234 241 236 233 238
184 198 220 234 207 220 179 170 173 167 149 166 163 170 185 186 205 192 193 196 207 232 237 242 248 234 237 225 244 239 234 241
258 192 211 235 245 187 179 171 166 158 159 169 186 193 191 183 196 202 199 211 213 230 235 237 241 236 230 246 254 262 248 240
253 249 217 209 216 189 173 175 157 158 168 176 188 182 188 179 184 201 193 205 213 223 233 236 227 232 244 243 246 258 254 249
265 290 289 220 219 185 181 174 171 175 175 178 177 170 174 175 185 196 206 207 226 223 228 232 229 210 217 231 251 255 255 249
285 278 252 185 246 272 57 167 161 146 138 156 127 137 167 186 195 207 224 223 224 229 240 244 227 227 220 228 237 249 255 248
297 292 283 231 192 189 120 117 144 125 102 100 97 110 95 38 339 257 248 240 233 229 237 251 227 231 227 230 235 227 241 240
324 344 322 178 138 126 116 92 82 93 90 84 67 77 68 57 52 35 360 326 302 254 255 252 241 235 241 237 238 230 235 244
8 25 40 72 62 81 71 102 100 97 72 95 84 95 45 23 19 9 359 318 300 278 253 267 264 243 242 236 241 241 241 230
26 28 44 43 60 65 73 78 77 57 85 112 117 141 182 176 192 207 200 226 270 272 268 265 259 258 258 255 241 247 248 198
27 41 46 48 50 45 53 50 52 43 35 34 43 62 38 15 1 347 349 344 332 317 298 279 268 263 265 255 241 230 242 213
44 44 49 52 53 63 65 63 55 46 40 59 56 66 37 334 298 325 327 331 320 311 304 294 282 274 275 271 253 228 225 237
73 69 70 62 54 57 65 65 55 43 52 66 76 55 23 311 339 339 323 308 307 304 305 305 301 284 267 272 265 247 226 247
118 115 102 89 62 62 62 72 62 60 71 68 71 61 10 0 340 335 322 304 304 301 297 295 292 287 265 251 255 260 258 245
167 138 100 77 57 38 52 49 47 28 40 44 49 70 30 323 300 290 300 302 302 299 303 298 291 286 287 268 242 227 240 236
207 181 163 154 109 154 184 196 280 15 47 19 359 9 359 297 269 276 271 274 280 284 286 285 284 279 279 275 264 253 238 240
232 198 70 337 331 317 258 307 311 312 314 315 311 324 338 310 300 283 279 277 287 286 288 289 284 278 272 270 264 254 239 234
269 224 317 328 302 284 251 269 277 273 276 270 274 272 276 275 280 289 289 279 286 295 290 288 286 271 268 266 269 268 251 245
219 237 283 292 301 289 279 275 273 277 273 271 285 297 297 294 290 286 282 284 285 291 287 286 282 274 265 271 275 281 267 283
230 264 286 283 282 262 263 267 272 277 282 289 290 294 296 294 293 287 284 287 290 288 282 283 277 275 287 285 299 315 336 41